Погода в Алаколе

Казахстан     54°01′16″N   75°55′57″E
темп.,
°C
ветер,
м/с
пор.,
м/с
влажн.,
%
обл.,
%
осадки,
мм/ч
давл.,
гПа
погр.,
м
8 мая, сб
сб800:00+12зсз33462 0.0 102131
03:00+10сз33511 0.0 102127
06:00+10сз22540 0.0 102212
09:00+16з22385 0.0 1021352
12:00+20зюз33294 0.0 10211367
15:00+23з34230 0.0 10191786
18:00+23сз22225 0.0 10181742
21:00+18всв223114 0.0 101811
9 мая, вс
вс900:00+16юв2235100 0.0 101714
03:00+14вюв3339100 0.0 101722
06:00+14в3443100 0.0 101660
09:00+17в5739100 0.0 1016307
12:00+21всв773272 0.0 10161531
15:00+21всв8731100 0.0 10152050
18:00+19всв91039100 0.0 10151194
21:00+15всв91539100 0.0 1016626
10 мая, пн
пн1000:00+12в91638100 0.0 1017709
03:00+11в8154296 0.0 1018733
06:00+8всв8154894 0.0 1019670
09:00+11в9124192 0.0 1020962
12:00+15всв9113148 0.0 10191487
15:00+17всв910296 0.0 10191812
18:00+16св9103166 0.0 10191903
21:00+12св613400 0.0 1020404
11 мая, вт
вт1100:00+10ссв512502 0.0 1021282
03:00+8ссв410601 0.0 1021210
06:00+7ссв510655 0.0 1022249
09:00+12ссв68500 0.0 10231102
12:00+15ссв67395 0.0 10221834
15:00+16ссв56345 0.0 10221981
18:00+16с67325 0.0 10221936
21:00+12с33438 0.0 102331
12 мая, ср
ср1200:00+11ссз2244100 0.0 102219
03:00+10сз2246100 0.0 102222
06:00+10зсз3350100 0.0 102260
09:00+15сз3438100 0.0 1021410
12:00+18з3427100 0.0 10201854
15:00+19з3430100 0.0 10182503
18:00+17зюз5545100 0.1 10191081
21:00+14с476193 0.1 1019234